AirNav   Pilot Hours Calculator
 
 791 users online  

N27 Bradford County Airport
Towanda, Pennsylvania, USA

GOING TO TOWANDA?


FAA INFORMATION EFFECTIVE 28 MARCH 2019

Location

FAA Identifier: N27
Lat/Long: 41-44-24.0000N / 076-26-49.7000W
41-44.400000N / 076-26.828333W
41.7400000 / -76.4471389
(estimated)
Elevation: 730.3 ft. / 222.6 m (surveyed)
Variation: 12W (2000)
From city: 2 miles S of TOWANDA, PA
Time zone: UTC -4 (UTC -5 during Standard Time)
Zip code: 18848

Airport Operations

Airport use: Open to the public
Activation date: 07/1938
Control tower: no
ARTCC: NEW YORK CENTER
FSS: WILLIAMSPORT FLIGHT SERVICE STATION
NOTAMs facility: IPT (NOTAM-D service available)
Attendance: M-F 0800-1700, MAR-OCT SAT-SUN 0800-1600, NOV-FEB SAT-SUN UNATTENDED
FOR SVC AFT HRS CALL 570-637-4902.
Wind indicator: lighted
Segmented circle: yes
Lights: ACTVT REIL AND HIRL RWY 05/23 - 123.0.
Beacon: white-green (lighted land airport)
Operates sunset to sunrise.

Airport Communications

CTAF/UNICOM: 123.0
WX AWOS-3: 119.925 (570-265-1024)
BINGHAMTON APPROACH: 118.6
BINGHAMTON DEPARTURE: 118.6
  • APCH/DEP SERVICE PRVDD BY NEW YORK ARTCC ON FREQS 132.175/298.9 (ELK MOUNTAIN RCAG) WHEN BINGHAMTON APCH CTL CLOSED.

Nearby radio navigation aids

VOR radial/distance  VOR name  Freq  Var
FQMr040/28.2WILLIAMSPORT VOR/DME114.4009W
CFBr219/28.6BINGHAMTON VOR/DME112.2010W
ULWr141/33.4ELMIRA VOR/DME109.6512W

 
NDB name  Hdg/Dist  Freq  Var  ID
ALPINE167/33.124512WALP .- .-.. .--.

Airport Services

Fuel available: 100LL JET-A
Parking: hangars and tiedowns
Airframe service: MAJOR
Powerplant service: MAJOR
Bottled oxygen: NONE
Bulk oxygen: NONE

Runway Information

Runway 5/23

Dimensions: 4301 x 75 ft. / 1311 x 23 m
Surface: asphalt, in fair condition
Weight bearing capacity: 
Single wheel: 12.0
Runway edge lights: high intensity
RUNWAY 5  RUNWAY 23
Latitude: 41-44.110687N41-44.690593N
Longitude: 076-27.099407W076-26.556652W
Elevation: 730.2 ft.713.5 ft.
Gradient: 0.388% DOWN0.388% UP
Traffic pattern: leftleft
Runway heading: 047 magnetic, 035 true227 magnetic, 215 true
Markings: nonprecision, in good conditionnonprecision, in good condition
Visual slope indicator: 2-light PAPI on left (3.00 degrees glide path)2-light PAPI on left (3.00 degrees glide path)
Runway end identifier lights: yesyes
Touchdown point: yes, no lightsyes, no lights

Airport Ownership and Management from official FAA records

Ownership: Publicly-owned
Owner: BRADFORD COUNTY AIRPORT AUTHORITY
415 AIRPORT RD.
TOWANDA, PA 18848
Phone 570-265-4900
Manager: KIERAN SPAULDING
415 AIRPORT RD.
TOWANDA, PA 18848
Phone 570-265-4900

Airport Operational Statistics

Aircraft based on the field: 23
Single engine airplanes: 22
Multi engine airplanes: 1
    
Aircraft operations: avg 63/day *
65% transient general aviation
35% local general aviation
<1% military
* for 12-month period ending 27 September 2018

Additional Remarks

ULTRALIGHT ACTIVITY ON AND INVOF.

Instrument Procedures

NOTE: All procedures below are presented as PDF files. If you need a reader for these files, you should download the free Adobe Reader.

NOT FOR NAVIGATION. Please procure official charts for flight.
FAA instrument procedures published for use from 28 March 2019 at 0901Z to 25 April 2019 at 0900Z.

 
IAPs - Instrument Approach Procedures
RNAV (GPS) RWY 23   download (179KB)
RNAV (GPS)-A   download (172KB)
NOTE: Special Take-Off Minimums/Departure Procedures apply   download (283KB)

Other nearby airports with instrument procedures:

KCZG - Tri-Cities Airport (26 nm NE)
KELM - Elmira/Corning Regional Airport (32 nm NW)
9N3 - Seamans Field Airport (32 nm E)
KBGM - Greater Binghamton Airport/Edwin A Link Field (35 nm NE)
KIPT - Williamsport Regional Airport (37 nm SW)
 
Loc | Ops | Rwys | IFR | FBO | Links
Com | Nav | Svcs | Stats | Notes
Area around N27 (Bradford County Airport)
 
Road maps at: MapQuest Bing Google
 
Aerial photo
WARNING: Photo may not be current or correct
Aerial photo of N27 (Bradford County Airport)
looking southwest

Do you have a better or more recent aerial photo of Bradford County Airport that you would like to share? If so, please send us your photo.

 
Sectional chart

 
Airport distance calculator
Flying to Bradford County Airport? Find the distance to fly.

From to N27

Sunrise and sunset
Times for 22-Apr-2019
 Local
(UTC-4)
 Zulu
(UTC)
Morning civil twilight05:4709:47
Sunrise06:1610:16
Sunset19:5323:53
Evening civil twilight20:2200:22

Current date and time
Zulu (UTC)  23-Apr-2019 03:31:58
Local (UTC-4)  22-Apr-2019 23:31:58
 
METAR
KELM 
32nm NW 
230253Z 00000KT 10SM CLR 08/06 A3011 RMK AO2 SLP199 T00830061 58003
KBGM 
35nm NE 
230253Z 31006KT 10SM CLR 09/06 A3009 RMK AO2 SLP196 T00890061 58002
KIPT 
36nm SW 
230254Z AUTO 30003KT 10SM CLR 12/07 A3008 RMK AO2 SLP187 T01170072 50009
KAVP 
40nm SE 
230254Z 34006KT 10SM CLR 14/06 A3009 RMK AO2 SLP186 T01390061 50011 $
KN38 
43nm W 
230315Z AUTO 06003KT 10SM CLR 11/07 A3011 RMK AO2
KITH 
44nm N 
230256Z AUTO 00000KT 8SM CLR 07/07 A3012 RMK AO2 SLP205 T00670067 58003
KHZL 
50nm SE 
230315Z AUTO 32003KT 10SM CLR 13/04 A3012 RMK AO2
TAF
KELM 
32nm NW 
221744Z 2218/2318 01008KT P6SM FEW025 FM230200 00000KT P6SM SCT250 FM230800 00000KT 2SM BR FEW003 SCT090 FM231000 00000KT 1SM BR SCT001 BKN010 FM231300 16005KT P6SM FEW009 BKN200 FM231600 21010KT P6SM BKN200
KBGM 
35nm NE 
221744Z 2218/2318 33009KT P6SM SCT025 FM230700 VRB03KT 3SM BR SCT060 FM230800 00000KT 2SM BR SCT007 BKN070 FM231000 00000KT 1SM BR BKN005 FM231200 00000KT 4SM BR BKN009 FM231400 19009KT P6SM SCT012 BKN200
KIPT 
36nm SW 
222128Z 2221/2318 VRB03KT P6SM SKC TEMPO 2309/2312 3SM BR FM231600 15009KT P6SM SCT150
NOTAMs
Click for the latest NOTAMs
NOTAMs are issued by the DoD/FAA and will open in a separate window not controlled by AirNav.

 

 
 

FBO, Fuel Providers, and Aircraft Ground Support

  
 Business Name 
 
 Contact 
 
 Services / Description 
 
Fuel Prices
 
Comments
  
Bradford County Airport Authority 570-265-4900
no information available

If you are affiliated with Bradford County Airport Authority and would like to show here your services, contact info, web link, logo, and more, click here
100LL Jet A
SS $4.69 $3.97 
 Updated 11-Apr-2019
 
   3 read write
SS=Self service
Update Fuel Prices
 

Would you like to see your business listed on this page?

 If your business provides an interesting product or service to pilots, flight crews, aircraft, or users of the Bradford County Airport, you should consider listing it here.  To start the listing process, click on the button below
 
Add a business
 

Other Pages about Bradford County Airport

Update a link
 
Copyright © AirNav, LLC. All rights reserved. Privacy Policy  Contact